Location: Saluda
(35.2377°N, 82.3468°W)
Time: 13:59:01
(UTC+00:00)

SR - Pass Details

Date: 12 October 2022
Orbit: 577 x 875 km, 66.7° (Epoch: 28 November)

Event Time Altitude Azimuth Distance (km) Brightness Sun altitude
Rises 00:47:59 0° 236° (WSW) 3,429 ? -23.0°
Reaches altitude 10° 00:50:48 10° 248° (WSW) 2,512 ? -23.5°
Maximum altitude 00:55:47 28° 306° (NW) 1,577 ? -24.5°
Drops below altitude 10° 01:00:46 10° 5° (N) 2,510 ? -25.5°
Sets 01:03:35 0° 17° (NNE) 3,425 ? -26.1°
